Regional Weather Roundup
Issued by NWS

Home | Current Version | Previous Version | Graphics & Text | Print | Product List | Glossary On
Versions: 1 2 3 4 5 6 7 8 9 10 11 12 13 14 15 16 17 18 19 20 21 22 23 24 25 26 27 28 29 30 31 32 33 34 35 36 37 38 39 40 41 42 43 44 45 46 47 48 49 50
000
ASUS43 KFSD 220610
RWRSD

WEATHER ROUNDUP FOR SOUTH DAKOTA
NATIONAL WEATHER SERVICE SIOUX FALLS SD
1200 AM CST THU FEB 22 2018

NOTE: "FAIR" INDICATES FEW OR NO CLOUDS BELOW 12,000 FEET WITH NO
SIGNIFICANT WEATHER AND/OR OBSTRUCTIONS TO VISIBILITY.


SDZ001>005-009-010-012>017-220700-
NORTHWEST AND NORTH CENTRAL SOUTH DAKOTA

CITY           SKY/WX    TMP DP  RH WIND       PRES   REMARKS
BUFFALO          N/A     -4 -10  75 S5        30.11S WCI -15
FAITH            N/A      0  -1  96 SE5       30.24F WCI -10
MOBRIDGE       FAIR       3  -4  72 VRB7      30.32F WCI  -9
$$

SDZ012>016-024>037-041>051-057-063-072>074-220700-
SOUTHWEST AND SOUTH CENTRAL SOUTH DAKOTA

CITY           SKY/WX    TMP DP  RH WIND       PRES   REMARKS
RAPID CTY ARPT FAIR       5  -3  69 CALM      30.17F
PIERRE         FAIR      12   5  73 SE16      30.35S WCI  -5
CUSTER         FAIR       8   2  76 SW5       30.06F WCI   0
ELLSWORTH AFB  FAIR      10   1  64 SE5       30.16F WCI   2
PHILIP         FAIR       9   3  77 SW3       30.28S
PINE RIDGE     FAIR      17   8  67 S17G25    30.21F WCI   1
SPEARFISH        N/A     10  -4  52 VRB5G13   30.12S WCI   2
WINNER         FAIR      21   9  59 S15       30.34S WCI   8
$$

SDZ004>011-016>023-039-040-220700-
NORTHEAST SOUTH DAKOTA

CITY           SKY/WX    TMP DP  RH WIND       PRES   REMARKS
ABERDEEN       FAIR       4  -3  73 SE17      30.45F WCI -16
WATERTOWN      FAIR       5   0  79 S12       30.46F WCI -11
BROOKINGS      CLOUDY     8   2  76 S10       30.49S WCI  -6
SISSETON         N/A     -6 -10  83 E5        30.52F WCI -17
$$

SDZ017-020-022-023-036>040-048>070-220700-
SOUTHEAST SOUTH DAKOTA

CITY           SKY/WX    TMP DP  RH WIND       PRES   REMARKS
SIOUX FALLS    FAIR      12   4  70 S3        30.52S
HURON          FAIR       8   2  76 SE5       30.48F WCI   0
CHAMBERLAIN    FAIR      11   6  80 E7        30.41S WCI   0
MITCHELL       FAIR      12   6  77 SE12      30.50F WCI  -2
YANKTON        FAIR      15   9  76 CALM      30.51F
$$

ABBREVIATIONS USED IN REMARKS
   TC - TEMPERATURE IN CELSIUS
  WCI - WIND CHILL INDEX
   HX - HEAT INDEX
  VSB - VISIBILITY




USA.gov is the U.S. government's official web portal to all federal, state and local government web resources and services.